Time,TemperatureF,DewpointF,PressureIn,WindDirection,WindDirectionDegrees,WindSpeedMPH,WindSpeedGustMPH,Humidity,HourlyPrecipIn,Conditions,Clouds,dailyrainin,SolarRadiationWatts/m^2,SoftwareType,DateUTC
2013-09-02 00:02:00,55.1,37.8,29.74,SSW,211,4.0,4.0,52,0.00,,,0.00,0,Wunderground v.1.15,2013-09-02 06:02:00,
2013-09-02 00:08:00,55.1,37.8,29.74,SSW,213,4.0,5.0,52,0.00,,,0.00,0,Wunderground v.1.15,2013-09-02 06:08:00,
2013-09-02 00:14:00,55.4,37.6,29.74,SSW,213,3.0,4.0,51,0.00,,,0.00,0,Wunderground v.1.15,2013-09-02 06:14:00,
2013-09-02 00:20:00,55.9,37.0,29.74,SSW,212,3.0,4.0,49,0.00,,,0.00,0,Wunderground v.1.15,2013-09-02 06:20:00,
2013-09-02 00:26:00,56.2,36.8,29.74,SSW,212,2.0,4.0,48,0.00,,,0.00,0,Wunderground v.1.15,2013-09-02 06:26:00,
2013-09-02 00:32:00,56.4,36.4,29.74,SSW,211,1.0,5.0,47,0.00,,,0.00,0,Wunderground v.1.15,2013-09-02 06:32:00,
2013-09-02 00:38:00,56.8,38.3,29.74,SW,221,3.0,5.0,50,0.00,,,0.00,0,Wunderground v.1.15,2013-09-02 06:38:00,
2013-09-02 00:44:00,56.5,38.6,29.74,SW,226,4.0,4.0,51,0.00,,,0.00,0,Wunderground v.1.15,2013-09-02 06:44:00,
2013-09-02 00:50:00,56.1,38.7,29.74,SW,234,3.0,5.0,52,0.00,,,0.00,0,Wunderground v.1.15,2013-09-02 06:50:00,
2013-09-02 00:56:00,55.5,37.7,29.74,SW,234,4.0,6.0,51,0.00,,,0.00,0,Wunderground v.1.15,2013-09-02 06:56:00,
2013-09-02 01:02:00,55.0,38.2,29.74,SW,235,3.0,4.0,53,0.00,,,0.00,0,Wunderground v.1.15,2013-09-02 07:02:00,
2013-09-02 01:08:00,54.4,38.1,29.73,WSW,239,2.0,5.0,54,0.00,,,0.00,0,Wunderground v.1.15,2013-09-02 07:08:00,
2013-09-02 01:14:00,53.8,38.0,29.74,SW,231,3.0,5.0,55,0.00,,,0.00,0,Wunderground v.1.15,2013-09-02 07:14:00,
2013-09-02 01:20:00,53.4,37.6,29.74,SSW,212,3.0,9.0,55,0.00,,,0.00,0,Wunderground v.1.15,2013-09-02 07:20:00,
2013-09-02 01:26:00,53.6,37.3,29.73,SSW,208,5.0,9.0,54,0.00,,,0.00,0,Wunderground v.1.15,2013-09-02 07:26:00,
2013-09-02 01:32:00,54.1,37.3,29.73,SSW,206,5.0,5.0,53,0.00,,,0.00,0,Wunderground v.1.15,2013-09-02 07:32:00,
2013-09-02 01:38:00,54.4,37.1,29.73,SSW,207,3.0,5.0,52,0.00,,,0.00,0,Wunderground v.1.15,2013-09-02 07:38:00,
2013-09-02 01:44:00,54.6,36.8,29.73,SSW,209,4.0,6.0,51,0.00,,,0.00,0,Wunderground v.1.15,2013-09-02 07:44:00,
2013-09-02 01:50:00,54.8,37.0,29.74,SSW,213,4.0,4.0,51,0.00,,,0.00,0,Wunderground v.1.15,2013-09-02 07:50:00,
2013-09-02 01:56:00,55.0,37.2,29.74,SSW,213,3.0,4.0,51,0.00,,,0.00,0,Wunderground v.1.15,2013-09-02 07:56:00,
2013-09-02 02:02:00,55.1,39.2,29.74,SSW,213,0.0,1.0,55,0.00,,,0.00,0,Wunderground v.1.15,2013-09-02 08:02:00,
2013-09-02 02:08:00,55.0,38.6,29.73,SSW,213,0.0,1.0,54,0.00,,,0.00,0,Wunderground v.1.15,2013-09-02 08:08:00,
2013-09-02 02:14:00,54.5,37.7,29.73,SSW,213,0.0,0.0,53,0.00,,,0.00,0,Wunderground v.1.15,2013-09-02 08:14:00,
2013-09-02 02:20:00,54.1,39.2,29.73,SSW,213,0.0,0.0,57,0.00,,,0.00,0,Wunderground v.1.15,2013-09-02 08:20:00,
2013-09-02 02:26:00,53.7,37.0,29.73,SSW,213,0.0,0.0,53,0.00,,,0.00,0,Wunderground v.1.15,2013-09-02 08:26:00,
2013-09-02 02:34:00,53.1,36.9,29.73,SSW,213,0.0,0.0,54,0.00,,,0.00,0,Wunderground v.1.15,2013-09-02 08:34:00,
2013-09-02 02:40:00,52.8,39.3,29.74,SSW,213,0.0,0.0,60,0.00,,,0.00,0,Wunderground v.1.15,2013-09-02 08:40:00,
2013-09-02 02:46:00,52.6,37.8,29.74,SSW,213,0.0,0.0,57,0.00,,,0.00,0,Wunderground v.1.15,2013-09-02 08:46:00,
2013-09-02 02:52:00,52.5,36.3,29.73,SSW,213,0.0,0.0,54,0.00,,,0.00,0,Wunderground v.1.15,2013-09-02 08:52:00,
2013-09-02 02:58:00,52.6,37.3,29.73,SSW,213,0.0,0.0,56,0.00,,,0.00,0,Wunderground v.1.15,2013-09-02 08:58:00,
2013-09-02 03:04:00,52.8,37.1,29.74,SW,214,0.0,1.0,55,0.00,,,0.00,0,Wunderground v.1.15,2013-09-02 09:04:00,
2013-09-02 03:10:00,53.3,37.1,29.74,SW,216,1.0,2.0,54,0.00,,,0.00,0,Wunderground v.1.15,2013-09-02 09:10:00,
2013-09-02 03:16:00,53.8,38.0,29.74,SW,216,2.0,4.0,55,0.00,,,0.00,0,Wunderground v.1.15,2013-09-02 09:16:00,
2013-09-02 03:22:00,54.1,37.3,29.73,SW,216,1.0,1.0,53,0.00,,,0.00,0,Wunderground v.1.15,2013-09-02 09:22:00,
2013-09-02 03:28:00,54.3,39.4,29.73,WSW,243,1.0,5.0,57,0.00,,,0.00,0,Wunderground v.1.15,2013-09-02 09:28:00,
2013-09-02 03:34:00,54.1,38.3,29.73,SW,234,3.0,4.0,55,0.00,,,0.00,0,Wunderground v.1.15,2013-09-02 09:34:00,
2013-09-02 03:40:00,53.5,37.7,29.73,SSW,207,4.0,4.0,55,0.00,,,0.00,0,Wunderground v.1.15,2013-09-02 09:40:00,
2013-09-02 03:46:00,53.0,37.3,29.73,SSW,205,4.0,4.0,55,0.00,,,0.00,0,Wunderground v.1.15,2013-09-02 09:46:00,
2013-09-02 03:52:00,52.6,36.4,29.73,SSW,205,2.0,3.0,54,0.00,,,0.00,0,Wunderground v.1.15,2013-09-02 09:52:00,
2013-09-02 03:58:00,52.4,36.2,29.73,SSW,205,1.0,3.0,54,0.00,,,0.00,0,Wunderground v.1.15,2013-09-02 09:58:00,
2013-09-02 04:04:00,52.3,36.6,29.73,SSW,204,1.0,5.0,55,0.00,,,0.00,0,Wunderground v.1.15,2013-09-02 10:04:00,
2013-09-02 04:12:00,52.6,36.9,29.73,SSW,203,1.0,2.0,55,0.00,,,0.00,0,Wunderground v.1.15,2013-09-02 10:12:00,
2013-09-02 04:18:00,53.0,36.8,29.73,SSW,206,2.0,6.0,54,0.00,,,0.00,0,Wunderground v.1.15,2013-09-02 10:18:00,
2013-09-02 04:24:00,53.6,36.9,29.73,SW,229,3.0,4.0,53,0.00,,,0.00,0,Wunderground v.1.15,2013-09-02 10:24:00,
2013-09-02 04:30:00,54.0,37.2,29.73,SW,235,4.0,5.0,53,0.00,,,0.00,0,Wunderground v.1.15,2013-09-02 10:30:00,
2013-09-02 04:36:00,54.1,38.3,29.73,WSW,237,4.0,5.0,55,0.00,,,0.00,0,Wunderground v.1.15,2013-09-02 10:36:00,
2013-09-02 04:42:00,53.8,38.5,29.73,WSW,237,3.0,4.0,56,0.00,,,0.00,0,Wunderground v.1.15,2013-09-02 10:42:00,
2013-09-02 04:48:00,53.4,38.1,29.73,WSW,237,1.0,4.0,56,0.00,,,0.00,0,Wunderground v.1.15,2013-09-02 10:48:00,
2013-09-02 04:54:00,53.1,38.7,29.73,WSW,237,0.0,1.0,58,0.00,,,0.00,0,Wunderground v.1.15,2013-09-02 10:54:00,
2013-09-02 05:00:00,52.5,37.7,29.73,SW,236,0.0,0.0,57,0.00,,,0.00,0,Wunderground v.1.15,2013-09-02 11:00:00,
2013-09-02 05:06:00,52.2,37.4,29.73,SW,236,0.0,2.0,57,0.00,,,0.00,0,Wunderground v.1.15,2013-09-02 11:06:00,
2013-09-02 05:12:00,52.2,38.3,29.73,SW,225,2.0,4.0,59,0.00,,,0.00,0,Wunderground v.1.15,2013-09-02 11:12:00,
2013-09-02 05:20:00,52.4,37.6,29.72,SW,219,3.0,4.0,57,0.00,,,0.00,0,Wunderground v.1.15,2013-09-02 11:20:00,
2013-09-02 05:34:00,52.9,37.2,29.72,South,170,3.0,5.0,55,0.00,,,0.00,0,Wunderground v.1.15,2013-09-02 11:34:00,
2013-09-02 05:40:00,53.5,37.3,29.72,South,171,5.0,6.0,54,0.00,,,0.00,0,Wunderground v.1.15,2013-09-02 11:40:00,
2013-09-02 05:46:00,54.1,36.9,29.72,South,187,6.0,10.0,52,0.00,,,0.00,0,Wunderground v.1.15,2013-09-02 11:46:00,
2013-09-02 05:52:00,54.5,37.2,29.72,South,185,5.0,5.0,52,0.00,,,0.00,0,Wunderground v.1.15,2013-09-02 11:52:00,
2013-09-02 05:58:00,54.8,37.0,29.72,SSW,205,4.0,5.0,51,0.00,,,0.00,0,Wunderground v.1.15,2013-09-02 11:58:00,
2013-09-02 06:04:00,54.9,37.6,29.72,SSW,211,4.0,6.0,52,0.00,,,0.00,0,Wunderground v.1.15,2013-09-02 12:04:00,
2013-09-02 06:10:00,54.7,38.4,29.71,SSW,207,4.0,6.0,54,0.00,,,0.00,0,Wunderground v.1.15,2013-09-02 12:10:00,
2013-09-02 06:16:00,54.0,37.7,29.72,SSW,204,5.0,6.0,54,0.00,,,0.00,0,Wunderground v.1.15,2013-09-02 12:16:00,
2013-09-02 06:24:00,53.3,37.5,29.71,SSW,208,3.0,4.0,55,0.00,,,0.00,0,Wunderground v.1.15,2013-09-02 12:24:00,
2013-09-02 06:30:00,53.2,37.9,29.71,SSW,207,3.0,3.0,56,0.00,,,0.00,0,Wunderground v.1.15,2013-09-02 12:30:00,
2013-09-02 06:36:00,53.0,38.2,29.71,SSW,207,1.0,3.0,57,0.00,,,0.00,0,Wunderground v.1.15,2013-09-02 12:36:00,
2013-09-02 06:42:00,52.9,38.1,29.71,SSW,207,0.0,0.0,57,0.00,,,0.00,0,Wunderground v.1.15,2013-09-02 12:42:00,
2013-09-02 06:48:00,52.7,37.4,29.71,SSW,210,2.0,5.0,56,0.00,,,0.00,0,Wunderground v.1.15,2013-09-02 12:48:00,
2013-09-02 06:54:00,53.1,37.3,29.72,SSW,204,4.0,5.0,55,0.00,,,0.00,5,Wunderground v.1.15,2013-09-02 12:54:00,
2013-09-02 07:00:00,53.9,37.1,29.72,SSW,202,4.0,4.0,53,0.00,,,0.00,9,Wunderground v.1.15,2013-09-02 13:00:00,
2013-09-02 07:06:00,54.4,37.1,29.72,SSW,199,4.0,6.0,52,0.00,,,0.00,12,Wunderground v.1.15,2013-09-02 13:06:00,
2013-09-02 07:14:00,54.8,38.0,29.71,SSW,202,5.0,7.0,53,0.00,,,0.00,16,Wunderground v.1.15,2013-09-02 13:14:00,
2013-09-02 07:24:00,55.7,38.3,29.72,SSW,199,6.0,6.0,52,0.00,,,0.00,30,Wunderground v.1.15,2013-09-02 13:24:00,
2013-09-02 07:30:00,56.1,38.7,29.71,SSW,194,4.0,4.0,52,0.00,,,0.00,35,Wunderground v.1.15,2013-09-02 13:30:00,
2013-09-02 07:36:00,56.4,38.0,29.71,SSW,194,4.0,11.0,50,0.00,,,0.00,40,Wunderground v.1.15,2013-09-02 13:36:00,
2013-09-02 07:42:00,57.2,38.2,29.71,South,188,8.0,9.0,49,0.00,,,0.00,49,Wunderground v.1.15,2013-09-02 13:42:00,
2013-09-02 07:48:00,58.0,38.9,29.71,SSW,195,9.0,9.0,49,0.00,,,0.00,56,Wunderground v.1.15,2013-09-02 13:48:00,
2013-09-02 07:54:00,58.8,39.1,29.71,SSW,202,9.0,11.0,48,0.00,,,0.00,62,Wunderground v.1.15,2013-09-02 13:54:00,
2013-09-02 08:00:00,59.5,38.7,29.72,SSW,192,9.0,11.0,46,0.00,,,0.00,62,Wunderground v.1.15,2013-09-02 14:00:00,
2013-09-02 08:06:00,60.1,38.7,29.71,SSW,192,9.0,12.0,45,0.00,,,0.00,81,Wunderground v.1.15,2013-09-02 14:06:00,
2013-09-02 08:12:00,60.7,38.6,29.71,SSW,208,9.0,10.0,44,0.00,,,0.00,91,Wunderground v.1.15,2013-09-02 14:12:00,
2013-09-02 08:18:00,61.2,39.1,29.71,SSW,197,9.0,10.0,44,0.00,,,0.00,120,Wunderground v.1.15,2013-09-02 14:18:00,
2013-09-02 08:24:00,61.7,39.0,29.71,SSW,196,9.0,12.0,43,0.00,,,0.00,156,Wunderground v.1.15,2013-09-02 14:24:00,
2013-09-02 08:30:00,62.3,39.5,29.71,SSW,198,8.0,8.0,43,0.00,,,0.00,171,Wunderground v.1.15,2013-09-02 14:30:00,
2013-09-02 08:38:00,63.0,39.5,29.71,SSW,192,6.0,8.0,42,0.00,,,0.00,207,Wunderground v.1.15,2013-09-02 14:38:00,
2013-09-02 08:44:00,63.7,40.8,29.72,SSW,213,4.0,6.0,43,0.00,,,0.00,220,Wunderground v.1.15,2013-09-02 14:44:00,
2013-09-02 08:50:00,64.4,40.8,29.71,SSW,193,4.0,7.0,42,0.00,,,0.00,250,Wunderground v.1.15,2013-09-02 14:50:00,
2013-09-02 08:56:00,65.3,41.0,29.71,SSW,194,6.0,10.0,41,0.00,,,0.00,276,Wunderground v.1.15,2013-09-02 14:56:00,
2013-09-02 09:06:00,66.6,40.9,29.71,SSW,192,5.0,8.0,39,0.00,,,0.00,308,Wunderground v.1.15,2013-09-02 15:06:00,
2013-09-02 09:12:00,67.4,41.6,29.71,South,186,6.0,6.0,39,0.00,,,0.00,316,Wunderground v.1.15,2013-09-02 15:12:00,
2013-09-02 09:20:00,68.3,41.0,29.70,South,181,7.0,7.0,37,0.00,,,0.00,285,Wunderground v.1.15,2013-09-02 15:20:00,
2013-09-02 09:26:00,68.7,41.4,29.70,South,186,8.0,11.0,37,0.00,,,0.00,209,Wunderground v.1.15,2013-09-02 15:26:00,
2013-09-02 09:34:00,68.9,40.8,29.70,SSW,193,8.0,11.0,36,0.00,,,0.00,360,Wunderground v.1.15,2013-09-02 15:34:00,
2013-09-02 09:40:00,69.4,41.3,29.70,South,188,7.0,7.0,36,0.00,,,0.00,248,Wunderground v.1.15,2013-09-02 15:40:00,
2013-09-02 09:48:00,69.8,42.3,29.70,SSW,210,6.0,7.0,37,0.00,,,0.00,253,Wunderground v.1.15,2013-09-02 15:48:00,
2013-09-02 09:54:00,70.2,42.0,29.70,SSW,192,6.0,6.0,36,0.00,,,0.00,244,Wunderground v.1.15,2013-09-02 15:54:00,
2013-09-02 10:00:00,70.6,40.9,29.69,SSW,194,6.0,7.0,34,0.00,,,0.00,288,Wunderground v.1.15,2013-09-02 16:00:00,
2013-09-02 10:06:00,71.2,40.6,29.69,SSW,203,9.0,11.0,33,0.00,,,0.00,271,Wunderground v.1.15,2013-09-02 16:06:00,
2013-09-02 10:14:00,72.0,40.5,29.69,SSW,213,9.0,11.0,32,0.00,,,0.00,251,Wunderground v.1.15,2013-09-02 16:14:00,
2013-09-02 10:20:00,72.2,40.7,29.69,SSW,201,9.0,9.0,32,0.00,,,0.00,220,Wunderground v.1.15,2013-09-02 16:20:00,
2013-09-02 10:26:00,72.2,41.5,29.69,SSW,205,9.0,10.0,33,0.00,,,0.00,200,Wunderground v.1.15,2013-09-02 16:26:00,
2013-09-02 10:32:00,72.0,41.3,29.69,SSW,205,9.0,10.0,33,0.00,,,0.00,216,Wunderground v.1.15,2013-09-02 16:32:00,
2013-09-02 10:38:00,71.7,41.8,29.69,South,190,10.0,10.0,34,0.00,,,0.00,223,Wunderground v.1.15,2013-09-02 16:38:00,
2013-09-02 10:46:00,71.7,41.8,29.69,SSW,200,10.0,10.0,34,0.00,,,0.00,234,Wunderground v.1.15,2013-09-02 16:46:00,
2013-09-02 10:52:00,71.8,41.9,29.69,SSW,206,8.0,10.0,34,0.00,,,0.00,230,Wunderground v.1.15,2013-09-02 16:52:00,
2013-09-02 10:58:00,72.1,41.4,29.68,SSW,200,7.0,15.0,33,0.00,,,0.00,232,Wunderground v.1.15,2013-09-02 16:58:00,
2013-09-02 11:04:00,72.6,41.8,29.68,SSW,210,7.0,7.0,33,0.00,,,0.00,239,Wunderground v.1.15,2013-09-02 17:04:00,
2013-09-02 11:12:00,73.4,42.5,29.69,SSE,162,7.0,7.0,33,0.00,,,0.00,244,Wunderground v.1.15,2013-09-02 17:12:00,
2013-09-02 11:18:00,73.8,46.6,29.68,SSE,165,3.0,6.0,38,0.00,,,0.00,255,Wunderground v.1.15,2013-09-02 17:18:00,
2013-09-02 11:26:00,74.2,43.2,29.68,SSW,206,2.0,9.0,33,0.00,,,0.00,264,Wunderground v.1.15,2013-09-02 17:26:00,
2013-09-02 11:32:00,74.7,43.7,29.68,SW,215,5.0,10.0,33,0.00,,,0.00,253,Wunderground v.1.15,2013-09-02 17:32:00,
2013-09-02 11:38:00,74.9,42.2,29.68,SSW,202,7.0,10.0,31,0.00,,,0.00,276,Wunderground v.1.15,2013-09-02 17:38:00,
2013-09-02 11:44:00,75.2,41.6,29.68,SSW,199,8.0,9.0,30,0.00,,,0.00,302,Wunderground v.1.15,2013-09-02 17:44:00,
2013-09-02 11:50:00,75.5,41.9,29.68,SSW,194,8.0,8.0,30,0.00,,,0.00,306,Wunderground v.1.15,2013-09-02 17:50:00,
2013-09-02 11:56:00,75.7,42.1,29.68,SSW,213,9.0,11.0,30,0.00,,,0.00,332,Wunderground v.1.15,2013-09-02 17:56:00,
2013-09-02 12:04:00,76.0,42.3,29.68,SW,216,8.0,10.0,30,0.00,,,0.00,308,Wunderground v.1.15,2013-09-02 18:04:00,
2013-09-02 12:10:00,76.4,41.8,29.68,South,189,9.0,13.0,29,0.00,,,0.00,294,Wunderground v.1.15,2013-09-02 18:10:00,
2013-09-02 12:16:00,76.7,42.0,29.68,South,173,10.0,13.0,29,0.00,,,0.00,288,Wunderground v.1.15,2013-09-02 18:16:00,
2013-09-02 12:22:00,76.8,42.1,29.68,SSW,209,8.0,9.0,29,0.00,,,0.00,287,Wunderground v.1.15,2013-09-02 18:22:00,
2013-09-02 12:28:00,77.0,43.2,29.68,SSW,207,8.0,10.0,30,0.00,,,0.00,274,Wunderground v.1.15,2013-09-02 18:28:00,
2013-09-02 12:34:00,77.3,43.4,29.68,SSW,197,7.0,8.0,30,0.00,,,0.00,257,Wunderground v.1.15,2013-09-02 18:34:00,
2013-09-02 12:40:00,77.6,41.9,29.68,SSW,202,6.0,10.0,28,0.00,,,0.00,236,Wunderground v.1.15,2013-09-02 18:40:00,
2013-09-02 12:46:00,78.0,42.2,29.68,South,188,5.0,10.0,28,0.00,,,0.00,223,Wunderground v.1.15,2013-09-02 18:46:00,
2013-09-02 12:52:00,78.4,40.7,29.68,SSE,153,5.0,8.0,26,0.00,,,0.00,237,Wunderground v.1.15,2013-09-02 18:52:00,
2013-09-02 12:58:00,78.8,40.0,29.68,SSE,148,6.0,10.0,25,0.00,,,0.00,251,Wunderground v.1.15,2013-09-02 18:58:00,
2013-09-02 13:04:00,79.2,41.3,29.67,SSE,159,7.0,8.0,26,0.00,,,0.00,269,Wunderground v.1.15,2013-09-02 19:04:00,
2013-09-02 13:10:00,79.6,40.7,29.67,SSE,164,8.0,8.0,25,0.00,,,0.00,341,Wunderground v.1.15,2013-09-02 19:10:00,
2013-09-02 13:16:00,80.1,40.0,29.67,SSE,164,9.0,11.0,24,0.00,,,0.00,438,Wunderground v.1.15,2013-09-02 19:16:00,
2013-09-02 13:22:00,81.0,41.9,29.67,SSE,158,9.0,11.0,25,0.00,,,0.00,526,Wunderground v.1.15,2013-09-02 19:22:00,
2013-09-02 13:28:00,82.0,42.7,29.67,SE,138,9.0,13.0,25,0.00,,,0.00,527,Wunderground v.1.15,2013-09-02 19:28:00,
2013-09-02 13:34:00,82.9,41.3,29.67,South,178,8.0,11.0,23,0.00,,,0.00,438,Wunderground v.1.15,2013-09-02 19:34:00,
2013-09-02 13:40:00,83.5,39.4,29.67,SSE,159,7.0,9.0,21,0.00,,,0.00,371,Wunderground v.1.15,2013-09-02 19:40:00,
2013-09-02 13:46:00,83.8,39.7,29.67,SE,124,7.0,11.0,21,0.00,,,0.00,383,Wunderground v.1.15,2013-09-02 19:46:00,
2013-09-02 13:52:00,83.9,42.1,29.67,South,171,6.0,7.0,23,0.00,,,0.00,353,Wunderground v.1.15,2013-09-02 19:52:00,
2013-09-02 13:58:00,84.0,41.1,29.67,SSE,150,5.0,7.0,22,0.00,,,0.00,323,Wunderground v.1.15,2013-09-02 19:58:00,
2013-09-02 14:04:00,84.1,42.3,29.67,SSE,149,5.0,6.0,23,0.00,,,0.00,301,Wunderground v.1.15,2013-09-02 20:04:00,
2013-09-02 14:12:00,84.1,45.5,29.68,WSW,251,5.0,6.0,26,0.00,,,0.00,248,Wunderground v.1.15,2013-09-02 20:12:00,
2013-09-02 14:18:00,83.9,43.2,29.68,SSW,205,5.0,10.0,24,0.00,,,0.00,207,Wunderground v.1.15,2013-09-02 20:18:00,
2013-09-02 14:24:00,83.7,42.0,29.68,South,180,4.0,4.0,23,0.00,,,0.00,181,Wunderground v.1.15,2013-09-02 20:24:00,
2013-09-02 14:30:00,83.4,44.9,29.68,SW,214,3.0,3.0,26,0.00,,,0.00,160,Wunderground v.1.15,2013-09-02 20:30:00,
2013-09-02 14:36:00,83.1,44.7,29.68,SSW,213,1.0,3.0,26,0.00,,,0.00,156,Wunderground v.1.15,2013-09-02 20:36:00,
2013-09-02 14:42:00,82.7,47.2,29.68,SSW,206,1.0,1.0,29,0.00,,,0.00,139,Wunderground v.1.15,2013-09-02 20:42:00,
2013-09-02 14:48:00,82.5,47.0,29.68,SSW,206,1.0,1.0,29,0.00,,,0.00,139,Wunderground v.1.15,2013-09-02 20:48:00,
2013-09-02 14:54:00,82.2,45.8,29.68,SSW,209,0.0,0.0,28,0.00,,,0.00,149,Wunderground v.1.15,2013-09-02 20:54:00,
2013-09-02 15:00:00,81.9,42.6,29.68,SW,215,2.0,2.0,25,0.00,,,0.00,162,Wunderground v.1.15,2013-09-02 21:00:00,
2013-09-02 15:06:00,81.7,44.5,29.68,SW,217,3.0,3.0,27,0.00,,,0.00,172,Wunderground v.1.15,2013-09-02 21:06:00,
2013-09-02 15:12:00,81.5,45.2,29.68,SW,216,1.0,1.0,28,0.00,,,0.00,172,Wunderground v.1.15,2013-09-02 21:12:00,
2013-09-02 15:18:00,81.4,45.2,29.68,SSW,205,0.0,4.0,28,0.00,,,0.00,174,Wunderground v.1.15,2013-09-02 21:18:00,
2013-09-02 15:24:00,81.2,44.0,29.69,SSW,205,1.0,1.0,27,0.00,,,0.00,190,Wunderground v.1.15,2013-09-02 21:24:00,
2013-09-02 15:30:00,81.1,43.9,29.69,West,259,1.0,1.0,27,0.00,,,0.00,202,Wunderground v.1.15,2013-09-02 21:30:00,
2013-09-02 15:36:00,81.0,42.9,29.69,WSW,257,3.0,4.0,26,0.00,,,0.00,195,Wunderground v.1.15,2013-09-02 21:36:00,
2013-09-02 15:42:00,80.9,46.6,29.69,WSW,258,3.0,3.0,30,0.00,,,0.00,186,Wunderground v.1.15,2013-09-02 21:42:00,
2013-09-02 15:48:00,80.8,44.6,29.69,West,267,2.0,7.0,28,0.00,,,0.00,181,Wunderground v.1.15,2013-09-02 21:48:00,
2013-09-02 15:54:00,80.6,45.4,29.69,West,267,1.0,2.0,29,0.00,,,0.00,197,Wunderground v.1.15,2013-09-02 21:54:00,
2013-09-02 16:00:00,80.5,51.1,29.69,NNE,25,2.0,7.0,36,0.00,,,0.00,221,Wunderground v.1.15,2013-09-02 22:00:00,
2013-09-02 16:08:00,80.0,51.4,29.69,ENE,72,2.0,7.0,37,0.00,,,0.00,327,Wunderground v.1.15,2013-09-02 22:08:00,
2013-09-02 16:14:00,79.7,48.8,29.69,NNE,25,3.0,3.0,34,0.00,,,0.00,325,Wunderground v.1.15,2013-09-02 22:14:00,
2013-09-02 16:20:00,79.8,51.2,29.69,NE,35,4.0,4.0,37,0.00,,,0.00,334,Wunderground v.1.15,2013-09-02 22:20:00,
2013-09-02 16:26:00,79.7,48.8,29.69,NE,42,3.0,4.0,34,0.00,,,0.00,318,Wunderground v.1.15,2013-09-02 22:26:00,
2013-09-02 16:34:00,79.7,51.1,29.69,NE,46,4.0,4.0,37,0.00,,,0.00,357,Wunderground v.1.15,2013-09-02 22:34:00,
2013-09-02 16:40:00,79.9,49.8,29.69,NE,53,3.0,3.0,35,0.00,,,0.00,322,Wunderground v.1.15,2013-09-02 22:40:00,
2013-09-02 16:46:00,80.3,46.9,29.69,SE,128,1.0,6.0,31,0.00,,,0.00,418,Wunderground v.1.15,2013-09-02 22:46:00,
2013-09-02 16:54:00,81.6,46.3,29.69,ESE,122,7.0,12.0,29,0.00,,,0.00,548,Wunderground v.1.15,2013-09-02 22:54:00,
2013-09-02 17:00:00,82.9,47.4,29.68,SE,131,10.0,10.0,29,0.00,,,0.00,645,Wunderground v.1.15,2013-09-02 23:00:00,
2013-09-02 17:06:00,83.9,47.3,29.69,SE,138,11.0,15.0,28,0.00,,,0.00,605,Wunderground v.1.15,2013-09-02 23:06:00,
2013-09-02 17:12:00,84.4,47.7,29.69,SSE,167,13.0,13.0,28,0.00,,,0.00,554,Wunderground v.1.15,2013-09-02 23:12:00,
2013-09-02 17:18:00,84.4,46.8,29.69,SSE,155,13.0,16.0,27,0.00,,,0.00,541,Wunderground v.1.15,2013-09-02 23:18:00,
2013-09-02 17:24:00,84.5,46.8,29.69,SE,142,12.0,17.0,27,0.00,,,0.00,526,Wunderground v.1.15,2013-09-02 23:24:00,
2013-09-02 17:30:00,84.5,46.8,29.69,SE,140,13.0,14.0,27,0.00,,,0.00,512,Wunderground v.1.15,2013-09-02 23:30:00,
2013-09-02 17:36:00,84.3,46.7,29.69,SSE,159,14.0,19.0,27,0.00,,,0.00,510,Wunderground v.1.15,2013-09-02 23:36:00,
2013-09-02 17:42:00,83.9,48.2,29.69,SSE,147,14.0,19.0,29,0.00,,,0.00,464,Wunderground v.1.15,2013-09-02 23:42:00,
2013-09-02 17:48:00,83.5,47.9,29.69,SE,130,13.0,19.0,29,0.00,,,0.00,422,Wunderground v.1.15,2013-09-02 23:48:00,
2013-09-02 17:54:00,82.9,47.4,29.70,SSE,158,14.0,17.0,29,0.00,,,0.00,388,Wunderground v.1.15,2013-09-02 23:54:00,
2013-09-02 18:00:00,82.3,47.8,29.69,SSE,148,14.0,14.0,30,0.00,,,0.00,341,Wunderground v.1.15,2013-09-03 00:00:00,
2013-09-02 18:06:00,82.0,47.5,29.69,SE,140,12.0,14.0,30,0.00,,,0.00,309,Wunderground v.1.15,2013-09-03 00:06:00,
2013-09-02 18:12:00,81.3,47.8,29.69,SSE,159,13.0,16.0,31,0.00,,,0.00,283,Wunderground v.1.15,2013-09-03 00:12:00,
2013-09-02 18:18:00,80.7,48.9,29.69,SSE,149,13.0,16.0,33,0.00,,,0.00,265,Wunderground v.1.15,2013-09-03 00:18:00,
2013-09-02 18:24:00,80.3,47.7,29.70,SSE,155,12.0,13.0,32,0.00,,,0.00,246,Wunderground v.1.15,2013-09-03 00:24:00,
2013-09-02 18:30:00,79.9,48.2,29.70,SSE,161,12.0,14.0,33,0.00,,,0.00,232,Wunderground v.1.15,2013-09-03 00:30:00,
2013-09-02 18:36:00,79.6,47.1,29.70,SSE,151,12.0,16.0,32,0.00,,,0.00,211,Wunderground v.1.15,2013-09-03 00:36:00,
2013-09-02 18:44:00,79.4,47.0,29.70,SSE,167,12.0,15.0,32,0.00,,,0.00,213,Wunderground v.1.15,2013-09-03 00:44:00,
2013-09-02 18:50:00,79.4,47.0,29.70,SE,128,12.0,14.0,32,0.00,,,0.00,193,Wunderground v.1.15,2013-09-03 00:50:00,
2013-09-02 18:56:00,79.3,46.9,29.70,SE,134,12.0,16.0,32,0.00,,,0.00,116,Wunderground v.1.15,2013-09-03 00:56:00,
2013-09-02 19:02:00,79.2,46.8,29.70,SE,144,11.0,11.0,32,0.00,,,0.00,100,Wunderground v.1.15,2013-09-03 01:02:00,
2013-09-02 19:10:00,79.0,46.6,29.70,SE,142,9.0,9.0,32,0.00,,,0.00,130,Wunderground v.1.15,2013-09-03 01:10:00,
2013-09-02 19:18:00,78.7,47.2,29.70,SSE,149,10.0,14.0,33,0.00,,,0.00,113,Wunderground v.1.15,2013-09-03 01:18:00,
2013-09-02 19:24:00,78.5,47.0,29.70,South,173,10.0,11.0,33,0.00,,,0.00,90,Wunderground v.1.15,2013-09-03 01:24:00,
2013-09-02 19:30:00,78.1,46.6,29.70,SE,138,11.0,12.0,33,0.00,,,0.00,53,Wunderground v.1.15,2013-09-03 01:30:00,
2013-09-02 19:36:00,77.5,46.9,29.71,SE,137,12.0,17.0,34,0.00,,,0.00,28,Wunderground v.1.15,2013-09-03 01:36:00,
2013-09-02 19:42:00,77.0,46.5,29.71,SE,144,12.0,12.0,34,0.00,,,0.00,16,Wunderground v.1.15,2013-09-03 01:42:00,
2013-09-02 19:50:00,76.4,46.7,29.71,SSE,155,11.0,13.0,35,0.00,,,0.00,12,Wunderground v.1.15,2013-09-03 01:50:00,
2013-09-02 19:56:00,76.1,46.5,29.71,SE,128,10.0,13.0,35,0.00,,,0.00,7,Wunderground v.1.15,2013-09-03 01:56:00,
2013-09-02 20:02:00,75.7,46.1,29.71,SE,134,10.0,11.0,35,0.00,,,0.00,0,Wunderground v.1.15,2013-09-03 02:02:00,
2013-09-02 20:08:00,75.5,46.7,29.71,SE,136,11.0,11.0,36,0.00,,,0.00,0,Wunderground v.1.15,2013-09-03 02:08:00,
2013-09-02 20:14:00,75.3,46.5,29.72,SSE,164,11.0,12.0,36,0.00,,,0.00,0,Wunderground v.1.15,2013-09-03 02:14:00,
2013-09-02 20:20:00,75.1,46.3,29.71,SE,134,9.0,11.0,36,0.00,,,0.00,0,Wunderground v.1.15,2013-09-03 02:20:00,
2013-09-02 20:26:00,75.0,45.5,29.71,SE,141,9.0,11.0,35,0.00,,,0.00,0,Wunderground v.1.15,2013-09-03 02:26:00,
2013-09-02 20:32:00,74.8,45.3,29.72,SSE,149,9.0,10.0,35,0.00,,,0.00,0,Wunderground v.1.15,2013-09-03 02:32:00,
2013-09-02 20:38:00,74.5,45.0,29.72,SE,139,9.0,16.0,35,0.00,,,0.00,0,Wunderground v.1.15,2013-09-03 02:38:00,
2013-09-02 20:44:00,74.3,45.6,29.72,SE,140,9.0,10.0,36,0.00,,,0.00,0,Wunderground v.1.15,2013-09-03 02:44:00,
2013-09-02 20:50:00,74.1,45.4,29.72,SE,141,10.0,10.0,36,0.00,,,0.00,0,Wunderground v.1.15,2013-09-03 02:50:00,
2013-09-02 20:56:00,73.9,46.0,29.73,SE,143,10.0,13.0,37,0.00,,,0.00,0,Wunderground v.1.15,2013-09-03 02:56:00,
2013-09-02 21:02:00,73.5,46.3,29.73,SE,145,10.0,10.0,38,0.00,,,0.00,0,Wunderground v.1.15,2013-09-03 03:02:00,
2013-09-02 21:08:00,73.3,46.2,29.73,SSE,155,11.0,14.0,38,0.00,,,0.00,0,Wunderground v.1.15,2013-09-03 03:08:00,
2013-09-02 21:14:00,73.1,46.0,29.74,SSE,150,10.0,13.0,38,0.00,,,0.00,0,Wunderground v.1.15,2013-09-03 03:14:00,
2013-09-02 21:20:00,72.7,45.6,29.74,SSE,153,8.0,8.0,38,0.00,,,0.00,0,Wunderground v.1.15,2013-09-03 03:20:00,
2013-09-02 21:26:00,72.5,46.1,29.75,South,185,4.0,8.0,39,0.00,,,0.00,0,Wunderground v.1.15,2013-09-03 03:26:00,
2013-09-02 21:32:00,72.1,46.4,29.75,SE,142,3.0,6.0,40,0.00,,,0.00,0,Wunderground v.1.15,2013-09-03 03:32:00,
2013-09-02 21:38:00,71.8,46.2,29.75,South,171,4.0,6.0,40,0.00,,,0.00,0,Wunderground v.1.15,2013-09-03 03:38:00,
2013-09-02 21:44:00,71.5,46.6,29.76,WSW,238,4.0,4.0,41,0.00,,,0.00,0,Wunderground v.1.15,2013-09-03 03:44:00,
2013-09-02 21:50:00,71.0,46.7,29.76,SW,229,2.0,2.0,42,0.00,,,0.00,0,Wunderground v.1.15,2013-09-03 03:50:00,
2013-09-02 21:56:00,70.2,46.0,29.76,SW,231,1.0,2.0,42,0.00,,,0.00,0,Wunderground v.1.15,2013-09-03 03:56:00,
2013-09-02 22:02:00,69.4,46.5,29.76,SW,231,1.0,1.0,44,0.00,,,0.00,0,Wunderground v.1.15,2013-09-03 04:02:00,
2013-09-02 22:04:00,69.1,46.3,29.76,SW,231,1.0,1.0,44,0.00,,,0.00,0,Wunderground v.1.15,2013-09-03 04:04:00,
2013-09-02 22:06:00,68.9,46.1,29.76,SW,231,0.0,1.0,44,0.00,,,0.00,0,Wunderground v.1.15,2013-09-03 04:06:00,
2013-09-02 22:12:00,68.1,46.5,29.77,WSW,242,0.0,6.0,46,0.00,,,0.00,0,Wunderground v.1.15,2013-09-03 04:12:00,
2013-09-02 22:18:00,67.2,46.3,29.77,WSW,240,1.0,6.0,47,0.00,,,0.00,0,Wunderground v.1.15,2013-09-03 04:18:00,
2013-09-02 22:20:00,67.0,46.1,29.77,WSW,240,1.0,1.0,47,0.00,,,0.00,0,Wunderground v.1.15,2013-09-03 04:20:00,
2013-09-02 22:26:00,66.5,46.2,29.77,WSW,240,0.0,1.0,48,0.00,,,0.00,0,Wunderground v.1.15,2013-09-03 04:26:00,
2013-09-02 22:32:00,65.9,46.2,29.77,WSW,240,0.0,2.0,49,0.00,,,0.00,0,Wunderground v.1.15,2013-09-03 04:32:00,
2013-09-02 22:38:00,65.3,46.2,29.77,WSW,240,1.0,2.0,50,0.00,,,0.00,0,Wunderground v.1.15,2013-09-03 04:38:00,
2013-09-02 22:44:00,64.7,46.1,29.78,WSW,240,0.0,0.0,51,0.00,,,0.00,0,Wunderground v.1.15,2013-09-03 04:44:00,
2013-09-02 22:50:00,64.3,45.8,29.78,WSW,240,0.0,0.0,51,0.00,,,0.00,0,Wunderground v.1.15,2013-09-03 04:50:00,
2013-09-02 22:56:00,63.9,46.4,29.78,WSW,240,0.0,0.0,53,0.00,,,0.00,0,Wunderground v.1.15,2013-09-03 04:56:00,
2013-09-02 23:02:00,63.1,45.7,29.78,WSW,240,0.0,0.0,53,0.00,,,0.00,0,Wunderground v.1.15,2013-09-03 05:02:00,
2013-09-02 23:10:00,62.2,45.8,29.78,WSW,240,0.0,0.0,55,0.00,,,0.00,0,Wunderground v.1.15,2013-09-03 05:10:00,
2013-09-02 23:16:00,61.7,45.8,29.78,WSW,240,0.0,0.0,56,0.00,,,0.00,0,Wunderground v.1.15,2013-09-03 05:16:00,
2013-09-02 23:22:00,61.2,45.8,29.78,WSW,240,0.0,0.0,57,0.00,,,0.00,0,Wunderground v.1.15,2013-09-03 05:22:00,
2013-09-02 23:28:00,60.6,45.7,29.79,WSW,240,0.0,0.0,58,0.00,,,0.00,0,Wunderground v.1.15,2013-09-03 05:28:00,
2013-09-02 23:36:00,60.1,45.3,29.78,WSW,240,0.0,3.0,58,0.00,,,0.00,0,Wunderground v.1.15,2013-09-03 05:36:00,
2013-09-02 23:42:00,59.9,45.5,29.79,WSW,237,1.0,2.0,59,0.00,,,0.00,0,Wunderground v.1.15,2013-09-03 05:42:00,
2013-09-02 23:48:00,59.8,45.4,29.79,SW,229,2.0,4.0,59,0.00,,,0.00,0,Wunderground v.1.15,2013-09-03 05:48:00,
2013-09-02 23:54:00,59.8,45.4,29.79,SW,229,3.0,3.0,59,0.00,,,0.00,0,Wunderground v.1.15,2013-09-03 05:54:00,